{"data":{"norad_id":54799,"intl_designator":"2022-175AT","name":"STARLINK-5421","alt_names":[],"object_type":"PAYLOAD","status":"ACTIVE","operator":null,"country":"US","launch_date":"2022-12-17","launch_site_code":"AFETR","launch_vehicle":null,"mission":null,"orbit_class":"UNKNOWN","rcs_meters":null,"size_class":null,"mass_kg":null,"dimensions":null,"purposes":["comms"],"wikipedia_slug":null,"has_3d_model":false,"image_url":null,"decayed_at":null,"tle_current":{"epoch":"2026-05-25T00:25:29.811360Z","epoch_age_seconds":74352,"freshness":"FRESH","line1":"1 54799U 22175AT  26145.01770615  .00002734  00000+0  18971-3 0  9990","line2":"2 54799  53.2149  36.4327 0001021  92.4424 267.6685 15.08860109191799","mean_motion":15.08860109,"eccentricity":0.0001021,"inclination_deg":53.2149,"raan_deg":36.4327,"arg_perigee_deg":92.4424,"mean_anomaly_deg":267.6685,"bstar":0.00018971,"rev_number":19179,"period_min":95.436282754825,"perigee_km":538.97561516628,"apogee_km":540.38823379066,"semimajor_km":6917.8189244785,"source":"CELESTRAK","updated_at":"2026-05-25T13:38:17.696557Z"}}}